GFSNGP_925_temp_000.txt.gz
Temp
20 21 22 22 22 22 22 21 19 20 21 22 21 21 18 18 18 18 16 16 15 14 14 14 13 13 13 13 12 11 9 9 9 9 8 7 6 6 5 5 5 4 4 4
16 22 21 20 21 21 22 22 22 21 21 22 19 19 17 17 16 15 15 14 14 14 13 13 13 13 12 12 12 12 11 10 9 9 8 6 6 5 5 5 4 4 4 3
16 16 15 15 17 21 22 22 21 19 20 20 18 17 17 16 15 14 14 13 13 13 13 13 12 12 12 11 11 11 11 10 9 5 4 4 5 5 5 5 4 4 3 3
14 13 16 21 22 22 21 21 21 21 20 18 17 16 17 14 13 13 12 12 13 13 13 12 12 11 11 10 10 10 10 10 7 5 5 5 5 4 4 4 4 4 3 2
13 16 17 19 20 19 18 18 20 19 17 16 15 16 15 14 13 13 12 13 13 13 12 12 11 10 9 9 9 9 10 8 6 4 6 5 4 3 4 4 4 3 2 1
12 13 14 19 20 20 19 16 17 16 14 13 14 12 13 13 13 13 13 13 13 12 12 11 10 9 9 9 8 8 5 5 5 5 5 5 4 4 4 4 3 2 0 -1
13 13 14 19 20 19 15 15 15 13 13 13 12 12 12 13 13 13 13 13 12 12 11 10 9 9 8 8 8 6 5 4 3 2 4 4 4 4 4 3 3 1 -0 -1
13 13 13 18 18 15 15 15 13 13 13 12 12 12 13 13 13 13 13 12 12 11 10 9 9 8 8 7 6 5 4 4 3 4 4 4 4 3 3 3 1 -0 -1 -1
16 15 18 18 17 16 13 13 13 12 12 13 12 13 13 12 13 13 12 12 11 10 9 9 8 8 7 6 5 4 4 4 4 4 4 3 3 3 3 2 0 -1 -2 -3
16 18 19 18 17 14 13 13 13 13 12 12 13 12 12 13 12 12 11 11 10 9 9 9 8 7 6 5 4 3 3 3 3 3 3 3 3 3 1 0 -1 -2 -3 -4
17 18 18 16 14 13 13 13 13 13 13 13 13 12 12 12 12 11 11 10 9 9 8 7 7 6 5 3 2 2 2 2 2 2 2 2 2 1 0 -1 -2 -3 -4 -6
15 17 15 14 13 13 12 13 13 13 13 12 12 12 11 11 10 10 9 8 8 8 7 7 6 5 4 3 2 1 0 0 1 1 1 1 1 0 -0 -1 -3 -3 -5 -6
17 15 14 13 13 13 13 14 13 12 12 12 11 11 10 9 9 8 8 7 6 6 6 5 4 3 3 2 1 0 -0 -1 -0 -0 0 0 -0 -2 -2 -2 -3 -3 -5 -6
15 14 13 13 13 13 13 12 12 12 11 11 10 9 8 7 7 6 6 5 5 5 4 3 2 3 3 0 1 1 -1 -1 -1 -1 -1 -1 -2 -2 -2 -3 -3 -3 -3 -5
13 13 13 14 13 13 12 12 11 11 10 9 8 7 6 6 5 4 4 3 3 2 2 2 0 -1 -1 1 0 0 0 -1 -1 -2 -2 -2 -2 -2 -3 -3 -3 -3 -3 -4
13 13 13 13 13 12 12 11 10 10 9 7 6 5 5 3 3 2 1 2 -0 -1 -1 -0 -1 -1 -2 -1 0 0 1 -1 -1 -2 -2 -2 -3 -3 -3 -3 -3 -3 -3 -5
11 11 11 11 11 11 10 10 9 7 5 5 4 4 2 1 0 0 1 -0 -0 -1 -1 -1 -1 -2 -2 -1 -1 -0 0 -2 -2 -2 -2 -3 -3 -3 -4 -4 -4 -4 -4 -5
13 12 11 11 10 9 8 7 5 4 3 3 3 2 1 -0 -0 -0 -0 -1 -1 -1 -1 -0 -1 -2 -2 -2 -1 -1 -2 -2 -3 -3 -3 -3 -3 -3 -4 -4 -4 -4 -4 -5
11 10 10 9 8 6 5 5 4 3 3 3 2 1 1 -0 -1 -1 -1 -2 -1 -1 0 -1 -1 -2 -2 -2 -2 -2 -2 -3 -3 -3 -3 -3 -3 -3 -4 -4 -4 -4 -4 -5
9 9 7 7 5 4 3 3 3 2 2 2 2 1 -0 -0 -1 -1 -1 -2 -1 -1 -0 -1 -1 -1 -2 -2 -2 -3 -3 -3 -3 -3 -3 -3 -3 -4 -4 -4 -4 -4 -4 -5
5 6 5 4 4 4 3 3 2 1 2 1 0 -0 -1 -1 -1 -1 -1 -1 -0 -0 -0 -1 -1 -2 -2 -2 -2 -2 -3 -3 -3 -3 -3 -3 -3 -3 -4 -4 -4 -4 -4 -4
6 5 4 3 2 2 3 3 2 -0 -1 -1 -1 -1 -1 -1 -1 -1 -0 -1 -0 -1 -1 -1 -2 -2 -2 -1 -2 -2 -3 -3 -3 -3 -3 -3 -3 -4 -4 -4 -4 -4 -5 -5
4 4 3 2 1 1 1 1 1 1 -1 -1 -1 -1 -1 -1 -1 -1 -1 -1 -1 -1 -2 -2 -1 -1 -1 -2 -2 -3 -3 -3 -3 -3 -4 -4 -3 -3 -4 -4 -5 -5 -5 -5
4 4 3 3 2 -0 -0 1 2 2 3 2 1 1 0 -1 -1 -1 -1 -1 -2 -1 -2 -2 -1 -1 -2 -2 -3 -3 -4 -4 -4 -4 -4 -4 -4 -4 -4 -4 -5 -5 -5 -5
4 3 3 2 0 1 2 3 4 4 4 2 1 1 0 -0 -1 -1 -1 -1 -2 -2 -2 -2 -2 -2 -2 -3 -3 -3 -4 -4 -4 -4 -4 -4 -4 -4 -4 -4 -4 -5 -5 -5
4 4 4 4 4 4 4 4 3 3 2 1 0 -0 -1 -1 -1 -1 -1 -1 -2 -2 -2 -2 -3 -3 -2 -3 -3 -4 -4 -4 -4 -4 -4 -5 -5 -5 -5 -5 -5 -5 -6 -6
4 5 4 4 4 4 4 4 3 1 -0 -1 -1 -1 -2 -2 -2 -2 -2 -2 -2 -2 -2 -2 -2 -2 -3 -3 -3 -4 -4 -4 -4 -5 -5 -5 -5 -6 -6 -6 -6 -7 -7 -7

GFSNGP_925_temp_003.txt.gz
Temp
17 18 19 20 20 20 20 17 14 16 18 16 15 15 15 14 14 13 12 12 11 11 12 12 12 11 11 11 11 10 9 9 10 9 7 5 3 4 3 4 5 4 4 4
16 17 17 17 17 17 18 19 19 19 16 16 15 15 14 13 12 12 12 11 11 11 12 12 11 11 10 9 9 9 8 8 9 7 5 4 3 3 4 5 5 4 4 4
12 13 11 12 17 18 20 20 20 16 16 14 13 13 11 11 11 11 10 10 10 11 11 11 11 9 9 8 8 8 7 7 6 5 4 3 2 4 4 4 4 4 4 3
8 9 12 17 19 19 18 17 17 16 14 13 12 12 10 10 10 10 11 10 10 11 11 11 9 9 8 8 7 7 6 5 5 5 3 3 3 4 4 4 4 4 3 2
9 9 13 16 19 17 16 15 15 13 12 12 13 13 11 11 11 11 11 11 11 11 11 10 9 8 8 7 7 6 5 5 4 4 4 3 2 4 4 4 4 3 2 1
7 8 9 13 18 17 17 12 13 12 11 11 11 6 9 10 11 11 12 12 11 11 10 9 8 8 7 7 6 5 4 4 4 3 3 3 2 4 4 4 3 1 0 -1
9 7 10 14 18 17 12 12 11 11 11 11 10 7 9 10 11 12 12 12 12 11 9 9 8 8 7 6 6 5 4 3 3 3 3 3 3 3 3 3 1 0 -1 -2
9 9 9 15 17 13 11 12 10 11 11 11 11 10 10 11 11 12 11 11 11 10 9 9 8 7 6 5 5 4 3 3 3 3 3 3 3 3 3 1 1 -1 -1 -3
10 10 12 15 14 11 11 10 10 10 11 11 10 11 11 10 10 11 11 10 9 9 9 8 7 6 6 4 4 3 3 2 2 2 3 3 3 2 2 1 -0 -1 -2 -3
12 16 17 13 12 12 11 10 10 10 11 11 11 11 11 9 9 9 8 8 8 8 7 6 6 6 5 4 3 3 2 1 1 2 2 2 2 1 1 -0 -1 -2 -3 -4
12 15 14 12 11 11 11 11 11 12 12 12 12 10 9 7 7 7 7 7 7 6 5 5 6 5 4 4 3 2 1 1 1 1 1 1 1 0 -1 -1 -2 -2 -3 -4
10 13 12 11 11 11 11 11 12 11 11 11 9 7 7 7 7 6 6 6 5 5 4 4 4 3 3 3 3 2 1 0 0 0 0 0 -0 -1 -2 -2 -2 -2 -3 -4
13 12 11 10 11 13 12 12 11 11 10 8 8 7 7 6 6 6 5 4 4 3 3 3 2 2 2 1 0 1 1 0 -0 -0 -0 -1 -1 -2 -2 -2 -2 -2 -3 -4
12 11 11 12 11 12 12 11 11 10 9 7 7 6 6 5 5 4 3 3 2 2 1 0 0 1 1 -0 -1 -0 0 0 -0 -0 -1 -1 -1 -2 -2 -2 -2 -2 -3 -4
11 11 12 12 12 12 11 10 8 7 6 6 6 5 4 4 3 3 2 2 1 1 -0 -1 -1 -1 -0 -1 -1 -1 0 0 -0 -1 -1 -1 -2 -2 -2 -2 -2 -3 -3 -4
11 12 12 11 11 10 9 8 6 5 5 5 5 4 4 3 2 2 1 1 0 -1 -1 -1 -2 -1 -1 -2 -2 -0 0 -0 -1 -1 -1 -2 -2 -2 -2 -2 -3 -3 -3 -4
9 9 9 10 8 7 7 7 5 5 5 4 4 3 3 2 1 1 1 -0 -1 -2 -2 -2 -1 -0 -1 -2 -1 -1 -1 -1 -2 -2 -2 -2 -2 -2 -3 -3 -3 -3 -3 -4
11 10 9 8 7 5 4 5 5 5 4 4 3 2 1 1 -0 0 -1 -1 -2 -1 -2 -1 -1 -1 -1 -2 -2 -1 -1 -1 -2 -2 -2 -2 -2 -3 -3 -3 -3 -3 -3 -4
9 8 7 6 6 5 5 5 4 3 3 3 2 2 1 1 -0 -1 -1 -2 -1 -1 -1 -0 -0 -0 -2 -2 -2 -2 -2 -2 -2 -2 -3 -3 -3 -3 -2 -3 -3 -3 -3 -3
6 6 6 6 6 5 4 4 3 2 3 2 1 1 0 -0 -1 -1 -1 -1 -1 -0 -1 -1 -1 -1 -1 -2 -2 -2 -2 -3 -3 -3 -3 -3 -3 -3 -2 -3 -3 -3 -3 -3
4 5 5 5 4 3 3 3 2 2 2 0 -2 -2 -1 -0 -0 -1 -1 -1 -0 -1 -1 -1 -1 -2 -2 -2 -2 -2 -2 -2 -3 -2 -3 -3 -3 -3 -3 -3 -3 -3 -3 -3
5 5 5 4 3 2 3 2 1 -0 -1 -1 -2 -2 -2 -1 1 0 0 -0 -0 -1 -1 -2 -2 -2 -2 -2 -2 -2 -2 -2 -3 -2 -3 -3 -3 -3 -3 -3 -3 -4 -4 -4
4 4 4 4 3 2 0 1 1 -0 -1 -1 -0 -1 -1 -1 -1 -1 -1 -1 -1 -1 -2 -2 -2 -2 -2 -2 -2 -2 -2 -3 -3 -3 -3 -3 -3 -3 -3 -3 -3 -4 -5 -5
4 4 4 4 3 -1 -1 3 3 3 2 2 0 0 -0 -1 -1 -1 -1 -1 -1 -1 -2 -2 -2 -2 -2 -2 -2 -2 -2 -3 -3 -3 -3 -4 -3 -3 -3 -3 -3 -4 -4 -5
4 4 4 3 2 1 2 3 3 3 4 3 2 1 0 -0 -1 -1 -1 -1 -1 -1 -2 -2 -2 -2 -2 -2 -2 -2 -2 -3 -3 -4 -4 -4 -4 -4 -4 -4 -4 -4 -4 -5
4 4 4 4 4 4 4 4 3 3 2 1 0 -0 -0 -1 -1 -1 -2 -1 -2 -2 -2 -2 -2 -2 -2 -2 -3 -3 -3 -3 -3 -4 -4 -4 -4 -4 -4 -5 -5 -5 -5 -5
4 4 4 4 4 3 3 2 0 -0 -0 -1 -2 -2 -1 -0 -1 -2 -2 -2 -2 -3 -2 -2 -3 -2 -2 -2 -2 -3 -3 -3 -3 -4 -4 -4 -4 -4 -4 -5 -6 -6 -6 -6

GFSNGP_925_temp_006.txt.gz
Temp
17 17 18 19 18 17 18 16 14 15 15 14 13 13 12 12 11 11 10 10 10 10 10 10 10 9 9 9 8 8 8 7 6 6 6 6 5 4 3 4 3 4 4 4
16 15 14 16 16 16 16 18 17 14 14 14 13 11 11 11 10 10 10 10 10 10 10 10 9 8 8 8 8 7 7 6 6 5 5 4 4 3 3 3 3 3 4 3
12 10 11 12 17 18 18 16 18 14 13 12 11 11 10 10 10 10 10 10 9 9 10 9 8 8 8 8 7 7 6 5 5 5 4 4 3 2 2 3 2 3 3 2
8 8 11 16 16 17 14 14 13 12 12 12 11 10 9 10 9 9 9 10 9 10 9 9 9 8 8 7 7 6 6 5 4 4 4 3 3 2 1 2 3 3 2 1
8 8 12 15 17 16 16 13 13 12 11 11 10 9 10 10 10 10 10 11 11 10 10 9 8 8 7 7 6 6 5 4 4 3 3 3 3 3 2 2 3 2 0 -1
7 8 9 13 17 16 16 12 12 11 10 10 10 6 8 9 10 11 11 11 11 10 9 8 8 8 7 6 6 5 4 4 3 3 3 3 3 2 2 2 2 0 -1 -2
6 5 8 12 14 16 12 12 11 10 9 9 8 7 8 10 10 11 11 11 10 9 8 8 7 7 6 6 5 4 4 3 3 3 2 3 3 3 2 2 0 -1 -2 -3
5 5 10 13 15 13 12 11 10 9 9 9 9 9 9 10 10 9 8 8 8 8 8 7 7 6 6 5 4 4 3 3 2 2 2 2 2 2 2 0 -1 -2 -2 -3
10 10 12 13 14 13 10 10 9 9 9 9 9 10 10 8 7 7 7 7 7 7 6 6 5 5 5 5 4 4 3 2 1 1 1 1 1 1 0 -0 -1 -2 -3 -4
11 14 13 13 11 10 10 10 9 9 9 10 10 10 7 6 6 6 6 6 6 5 4 4 4 4 4 3 3 2 2 2 1 0 0 1 0 -0 -1 -1 -2 -2 -3 -4
10 13 12 12 12 10 10 9 9 10 10 10 8 6 6 5 5 5 5 5 4 4 3 3 3 2 2 2 2 2 1 1 1 0 -0 -0 -1 -1 -2 -2 -2 -3 -3 -4
12 13 13 11 10 10 10 10 10 10 8 8 7 5 6 4 5 5 4 4 3 3 2 2 2 1 1 0 1 -0 -0 0 0 -0 -0 -1 -1 -2 -2 -2 -2 -2 -3 -4
12 12 12 11 10 10 10 10 9 9 8 6 6 6 5 4 4 4 4 3 2 2 2 1 1 -0 0 -0 0 -1 -2 -1 -1 -0 -1 -1 -2 -2 -2 -2 -2 -2 -3 -4
12 10 10 10 10 10 10 9 8 7 6 6 5 5 4 4 4 4 3 2 2 1 1 -0 -1 -1 -1 -1 -1 -2 -2 -1 -1 -1 -1 -1 -2 -2 -2 -2 -3 -3 -3 -3
10 11 10 10 10 10 9 8 6 5 4 4 5 4 5 4 3 3 3 2 1 -1 -1 -2 -2 -2 -1 -1 -1 -2 -2 -1 -0 -1 -1 -2 -2 -2 -3 -3 -3 -3 -3 -4
10 10 10 10 10 9 8 6 5 4 4 4 4 4 4 3 2 2 2 0 -1 -2 -2 -2 -2 -1 -1 -1 -1 -1 -1 -1 -1 -2 -2 -2 -2 -2 -3 -3 -3 -3 -3 -3
8 8 8 8 7 6 6 6 5 4 4 4 4 4 3 2 1 1 0 -1 -1 -2 -2 -2 -1 -0 -1 -1 -1 -2 -1 -1 -2 -2 -3 -3 -2 -2 -3 -3 -3 -3 -3 -4
8 7 7 6 5 4 4 4 5 5 4 4 3 3 2 1 -1 -0 -0 -1 -1 -1 -1 -1 -0 -1 -1 -1 -1 -2 -2 -2 -1 -2 -2 -3 -3 -3 -3 -3 -3 -3 -3 -4
6 5 5 5 5 5 5 5 4 4 4 3 2 2 1 0 -0 -0 -0 -1 -1 -1 -1 -0 -1 -1 -1 -1 -1 -2 -2 -2 -2 -2 -2 -3 -3 -3 -3 -3 -3 -3 -3 -3
4 4 5 4 5 5 5 4 3 2 2 1 1 -0 -1 0 0 -0 -0 -1 -0 0 -0 -1 -2 -3 -2 -2 -1 -2 -2 -2 -2 -3 -3 -3 -3 -3 -3 -3 -3 -3 -3 -4
3 4 5 5 4 3 3 2 1 1 2 0 -2 -2 -3 -1 -0 -0 -2 -3 -0 -0 -1 -1 -1 -2 -2 -2 -2 -2 -3 -3 -3 -3 -3 -3 -3 -3 -3 -3 -3 -3 -4 -4
4 4 4 4 3 2 3 2 1 -1 -2 -2 -2 -2 -2 -2 -2 -1 -1 -1 -1 -0 -1 -1 -1 -1 -2 -2 -2 -2 -2 -2 -2 -3 -3 -3 -3 -3 -3 -3 -3 -4 -4 -4
4 4 4 3 3 2 2 2 2 1 0 0 -1 0 -1 -2 -2 -3 -2 -1 -1 -1 -1 -2 -1 -1 -2 -2 -2 -2 -2 -2 -2 -3 -3 -3 -3 -3 -3 -3 -3 -3 -4 -4
4 4 3 3 3 2 1 3 3 3 3 3 2 0 -1 -2 -2 -2 -1 -1 -1 -1 -1 -2 -2 -2 -2 -3 -3 -3 -2 -2 -2 -3 -3 -3 -3 -4 -4 -3 -3 -3 -3 -4
3 3 3 3 2 2 2 3 2 2 1 1 1 -0 -0 -1 -2 -1 -1 -1 -1 -2 -2 -2 -2 -2 -3 -3 -3 -3 -3 -3 -3 -3 -3 -3 -4 -4 -4 -4 -4 -3 -4 -4
3 3 3 3 3 3 3 2 1 0 0 -0 0 0 -0 -0 -1 -1 -1 -2 -2 -2 -3 -3 -4 -3 -3 -3 -3 -3 -3 -3 -3 -3 -4 -4 -4 -4 -4 -4 -4 -4 -4 -5
4 3 3 3 3 3 2 1 -1 -1 0 0 0 -1 -1 -1 -1 -2 -2 -3 -3 -4 -4 -4 -4 -4 -5 -4 -4 -4 -3 -4 -4 -3 -4 -4 -4 -4 -4 -4 -4 -5 -5 -5

GFSNGP_925_temp_009.txt.gz
Temp
15 14 17 18 18 16 16 15 14 15 14 14 12 11 10 10 9 9 9 10 9 8 9 9 9 9 9 9 8 8 8 7 6 6 5 5 4 4 4 3 2 2 2 3
15 13 13 16 16 15 15 16 15 14 13 13 12 10 10 10 9 9 10 11 10 10 9 9 9 9 9 8 8 7 7 6 6 5 4 4 3 3 2 2 2 2 3 3
12 9 11 12 14 16 17 16 14 12 13 11 10 11 9 9 9 9 10 10 9 9 9 9 9 9 8 8 7 7 6 6 5 4 4 3 3 3 2 2 2 2 2 1
8 7 12 15 14 15 16 14 13 12 11 11 11 10 9 8 9 8 9 9 8 9 9 9 9 8 8 8 7 6 6 5 4 4 4 3 2 2 2 2 2 1 1 -0
8 8 12 16 15 14 15 14 12 11 10 11 9 9 9 8 8 8 8 9 10 10 10 9 8 8 7 7 6 5 6 5 4 3 3 2 2 2 2 2 1 0 -1 -1
6 8 10 13 15 15 15 12 11 11 10 9 8 6 8 8 8 9 10 10 9 9 8 8 8 7 6 6 6 6 5 4 3 3 2 2 2 2 2 1 1 -0 -1 -2
3 5 9 11 14 15 13 13 10 10 10 8 9 8 8 7 8 9 9 8 8 8 7 7 6 6 5 5 5 5 4 4 3 2 1 2 1 2 2 2 0 -1 -1 -3
6 5 11 12 13 13 12 11 10 9 9 9 9 9 8 8 7 7 7 7 7 7 6 6 5 5 4 4 4 4 4 3 2 1 1 1 1 1 1 -0 -1 -2 -3 -4
10 10 12 12 13 13 10 10 9 9 8 9 8 8 8 6 5 5 6 6 6 5 5 4 4 3 3 3 3 2 2 2 1 1 0 0 1 0 -1 -1 -1 -2 -3 -4
11 14 12 11 12 11 9 10 8 9 8 8 9 8 6 5 5 5 5 5 5 4 3 3 3 2 2 1 1 1 1 1 0 -0 -0 -0 0 -1 -1 -2 -2 -3 -3 -4
9 11 12 12 11 11 10 9 8 9 9 9 7 5 6 5 4 5 5 4 4 3 2 2 2 1 1 0 -0 0 0 -0 -1 -2 -1 -1 -1 -1 -2 -2 -2 -3 -3 -4
11 12 12 12 11 9 9 8 9 8 8 7 7 6 5 4 5 4 4 3 2 2 2 1 1 0 -0 -1 -1 -1 -2 -2 -2 -2 -2 -1 -1 -2 -2 -2 -2 -3 -4 -4
13 12 11 12 10 9 9 9 9 7 7 6 6 5 5 4 4 4 3 2 2 1 1 -0 -1 -2 -2 -1 -1 -1 -2 -2 -2 -2 -2 -2 -2 -2 -2 -2 -3 -3 -3 -3
11 10 11 9 10 9 9 8 8 7 6 5 5 5 5 4 3 3 2 2 1 1 -0 -2 -2 -2 -2 -2 -1 -1 -1 -2 -2 -2 -2 -2 -2 -2 -2 -3 -3 -3 -3 -3
11 10 11 9 9 8 7 6 6 5 4 4 4 4 3 3 2 2 2 1 1 -0 -1 -2 -2 -2 -1 -1 -1 -1 -2 -2 -1 -1 -2 -2 -2 -2 -2 -3 -3 -3 -4 -4
9 10 9 8 8 8 7 6 4 3 4 3 3 3 3 3 3 2 2 1 -0 -1 -1 -2 -2 -1 -1 -1 -1 -2 -2 -2 -2 -2 -2 -3 -3 -3 -3 -3 -3 -3 -3 -4
8 7 6 6 6 5 4 3 4 4 3 3 3 3 3 3 2 2 1 1 -0 -1 -1 -1 -1 -1 -1 -1 -2 -2 -2 -2 -2 -2 -2 -2 -3 -3 -3 -3 -3 -3 -3 -4
7 6 5 4 3 2 3 4 4 4 3 3 3 3 2 2 0 1 1 0 -0 -1 -0 0 -1 -1 -1 -1 -1 -2 -2 -2 -2 -3 -2 -2 -3 -3 -3 -3 -4 -3 -3 -3
3 3 3 3 4 4 4 4 4 3 2 2 2 2 1 1 0 1 0 -0 -1 -2 0 -0 -1 -1 -1 -2 -2 -2 -2 -3 -3 -3 -3 -3 -3 -3 -3 -3 -3 -3 -3 -3
2 2 3 4 4 4 3 2 2 3 2 1 0 -0 -1 1 -0 -0 -1 -2 -0 -0 -0 -0 -1 -1 -1 -1 -1 -2 -3 -3 -3 -3 -3 -3 -3 -3 -3 -3 -3 -3 -3 -4
2 3 3 3 3 3 3 2 1 1 0 -1 -3 -3 -3 -2 -3 -3 -3 -4 0 -0 -1 -1 -1 -1 -1 -1 -2 -3 -3 -3 -3 -3 -3 -3 -3 -3 -3 -3 -3 -3 -3 -3
3 3 3 3 2 2 2 1 1 1 1 0 -1 -2 -2 -2 -2 -2 -3 -3 -1 -1 -2 -2 -2 -2 -2 -2 -2 -3 -3 -3 -3 -3 -3 -3 -3 -3 -4 -4 -3 -3 -3 -4
3 3 3 3 2 2 2 3 2 1 1 2 1 1 -1 -1 -2 -2 -2 -2 -2 -2 -2 -2 -2 -2 -2 -2 -3 -3 -3 -3 -3 -3 -2 -2 -3 -3 -3 -4 -4 -4 -3 -3
3 3 3 3 2 2 1 3 3 3 2 2 1 1 -0 -1 -2 -1 -2 -1 -1 -1 -2 -2 -3 -3 -3 -3 -3 -3 -3 -3 -3 -3 -3 -3 -3 -4 -4 -4 -4 -4 -4 -4
3 2 2 2 2 2 2 2 2 2 1 1 1 1 1 0 -1 -0 -1 -1 -2 -2 -3 -3 -4 -4 -4 -4 -4 -3 -3 -4 -4 -4 -4 -4 -4 -4 -4 -5 -5 -4 -4 -4
2 1 1 1 1 0 -0 -0 -1 -1 -2 -2 -0 0 -0 -0 -1 -2 -2 -2 -3 -3 -4 -4 -5 -5 -5 -6 -5 -5 -5 -6 -5 -4 -4 -4 -4 -4 -4 -4 -4 -4 -5 -4
-0 -1 -2 -2 -2 -2 -2 -3 -2 -2 -2 -3 -3 -3 -3 -2 -2 -2 -2 -3 -3 -4 -5 -6 -6 -7 -8 -8 -8 -8 -8 -8 -8 -8 -8 -8 -7 -4 -4 -4 -4 -4 -5 -5

GFSNGP_925_temp_015.txt.gz
Temp
14 14 15 17 17 16 17 17 18 17 16 18 17 16 14 12 12 11 11 11 11 11 10 9 9 10 10 9 8 8 8 7 6 6 5 5 4 3 2 2 2 2 2 1
14 13 13 15 16 16 15 15 16 15 16 16 15 13 12 12 11 11 11 11 11 10 10 9 9 9 9 8 8 7 7 6 6 5 5 4 4 3 2 2 2 2 1 1
15 11 12 15 15 16 15 15 17 16 19 14 13 13 13 12 11 11 11 11 11 10 10 10 9 9 8 8 7 7 6 6 5 5 5 4 3 2 2 1 1 1 0 0
13 10 16 18 15 15 16 15 15 15 15 14 14 12 12 12 12 11 11 11 11 10 9 9 9 8 8 7 7 6 6 5 5 4 4 3 3 2 1 1 0 0 -0 -1
13 13 14 18 14 14 15 18 16 15 14 12 11 12 13 11 11 12 11 11 10 9 9 8 8 7 7 7 6 5 4 4 4 3 3 2 1 1 1 0 0 -0 -0 -2
9 14 15 16 15 14 15 16 15 14 12 11 12 14 16 12 11 10 9 9 8 7 7 7 6 7 6 5 4 3 3 3 3 2 1 1 1 0 0 -0 -1 -1 -2 -2
7 13 13 13 14 14 16 17 12 12 12 11 13 14 12 10 9 9 8 7 7 7 6 6 5 5 5 4 3 2 2 2 1 1 0 0 -0 0 -0 -1 -1 -2 -2 -3
7 10 14 12 14 15 15 13 12 12 12 11 12 10 10 9 8 7 7 6 5 5 5 5 5 4 3 3 2 1 1 -0 -0 -0 -0 -1 -1 -1 -1 -1 -2 -2 -3 -3
12 13 13 12 13 13 12 13 13 12 12 12 10 10 9 8 7 6 6 5 5 5 4 4 3 3 2 1 1 0 -1 -1 -1 -1 -1 -1 -1 -1 -1 -2 -2 -3 -3 -3
12 14 12 12 13 12 13 13 12 12 12 10 11 9 8 7 6 6 5 5 4 4 3 3 3 2 1 0 -0 -1 -1 -1 -2 -2 -2 -1 -1 -1 -2 -2 -2 -2 -2 -3
11 12 12 13 12 13 13 11 11 11 10 10 10 9 7 6 4 4 3 3 3 3 2 2 2 1 0 -0 -1 -2 -2 -1 -1 -1 -2 -2 -2 -2 -2 -2 -2 -2 -2 -3
13 15 14 14 14 12 12 12 11 10 9 8 8 7 6 5 4 3 2 2 2 2 2 1 1 0 -0 -1 -2 -2 -2 -1 -1 -2 -2 -2 -2 -2 -2 -2 -2 -3 -3 -3
15 12 12 12 11 12 12 11 9 9 8 7 6 5 3 3 2 3 3 2 2 2 1 1 -0 -1 -1 -2 -2 -2 -2 -2 -2 -2 -2 -2 -3 -3 -2 -2 -2 -3 -3 -3
11 11 11 11 11 8 7 6 5 5 4 4 3 3 3 2 2 2 2 2 2 0 0 -0 -1 -0 -1 -1 -1 -1 -1 -2 -2 -2 -2 -3 -3 -3 -3 -3 -3 -3 -3 -3
9 9 9 7 6 6 5 5 4 3 3 2 3 3 3 1 2 2 2 1 -0 0 0 -0 -0 -0 -1 -1 -1 -2 -2 -2 -2 -2 -2 -3 -3 -3 -3 -4 -4 -4 -4 -4
7 6 6 5 4 4 4 3 2 2 2 1 2 2 1 1 2 1 1 0 -0 -0 1 0 0 0 -1 -1 -2 -2 -2 -3 -3 -3 -3 -3 -3 -3 -3 -4 -4 -4 -4 -4
6 4 3 3 3 3 3 3 3 4 3 2 2 2 2 1 0 0 1 0 -0 0 0 1 1 -0 -1 -1 -2 -2 -2 -2 -2 -3 -3 -3 -3 -4 -3 -3 -4 -4 -4 -4
4 4 3 3 2 2 2 2 2 2 2 2 1 0 -0 -1 -1 -1 -1 -1 -1 -0 1 1 -0 -1 -1 -1 -2 -2 -2 -2 -3 -3 -3 -3 -4 -4 -3 -4 -4 -4 -4 -4
3 3 3 3 3 3 2 1 0 0 -0 -1 -1 -1 -1 -1 -1 -1 -2 -2 -1 -2 2 0 -1 -1 -1 -1 -2 -3 -3 -3 -3 -3 -3 -4 -4 -4 -4 -4 -4 -5 -5 -5
3 3 3 1 1 1 0 -0 -0 -0 -0 -0 -1 -1 -1 -0 -1 -2 -3 -4 -1 -1 -1 -1 -2 -2 -2 -2 -2 -3 -3 -3 -3 -3 -3 -4 -4 -5 -5 -4 -4 -5 -5 -5
1 1 1 1 1 1 1 0 0 0 0 0 -1 -0 -1 -0 -2 -3 -3 -3 -1 -1 -2 -2 -2 -2 -2 -2 -3 -4 -4 -3 -3 -3 -3 -3 -4 -5 -5 -5 -5 -4 -5 -5
2 1 1 0 0 1 0 0 0 0 1 1 0 -0 -1 -1 -1 -3 -3 -2 -1 -2 -2 -2 -2 -2 -2 -3 -4 -4 -4 -4 -3 -4 -3 -4 -4 -4 -4 -4 -4 -4 -4 -4
1 1 1 0 -0 -1 -0 -1 -1 -2 -2 -2 -2 -2 -3 -3 -3 -3 -2 -1 -1 -2 -2 -2 -2 -2 -3 -4 -4 -4 -4 -4 -5 -4 -4 -4 -4 -4 -4 -4 -4 -4 -4 -4
0 -1 -1 -1 -2 -3 -3 -4 -4 -4 -4 -4 -4 -3 -3 -4 -4 -3 -3 -3 -3 -2 -3 -3 -3 -3 -4 -4 -5 -6 -6 -7 -7 -7 -7 -7 -8 -8 -7 -7 -6 -5 -5 -5
-2 -3 -4 -4 -5 -5 -5 -5 -5 -4 -4 -4 -4 -4 -3 -3 -4 -4 -4 -3 -3 -4 -4 -4 -4 -4 -5 -6 -7 -8 -9 -9 -10 -10 -10 -10 -11 -11 -11 -11 -11 -10 -9 -8
-4 -4 -5 -5 -6 -6 -7 -7 -7 -6 -7 -6 -6 -6 -5 -5 -5 -4 -4 -4 -4 -4 -4 -5 -7 -7 -8 -8 -9 -10 -10 -11 -11 -11 -12 -13 -13 -13 -12 -12 -12 -12 -12 -12
-5 -7 -7 -6 -8 -9 -10 -10 -10 -10 -9 -9 -9 -9 -9 -7 -7 -7 -6 -5 -4 -5 -7 -9 -9 -10 -11 -11 -11 -12 -12 -13 -13 -13 -14 -14 -14 -14 -13 -13 -12 -12 -12 -12

GFSNGP_925_temp_018.txt.gz
Temp
20 20 20 21 22 22 22 23 21 24 23 25 24 24 23 22 20 19 18 17 16 16 15 13 12 11 10 12 11 10 9 9 9 8 7 7 6 5 5 4 4 4 4 4
18 18 19 19 21 22 23 23 22 23 23 25 24 22 21 20 19 18 17 17 16 16 15 14 13 10 12 11 10 9 9 9 8 7 7 6 6 5 4 4 4 4 4 3
20 16 17 16 19 22 22 22 22 21 24 23 21 20 21 20 18 18 17 17 16 16 15 14 12 12 12 11 9 9 9 8 7 7 6 6 5 5 4 4 3 3 3 2
17 14 17 23 20 20 22 22 23 22 23 22 22 20 19 20 19 18 17 17 17 16 14 13 13 12 11 10 9 8 8 7 6 6 5 5 5 5 4 4 3 3 3 2
16 19 20 23 20 19 19 22 23 22 23 21 18 17 19 18 18 18 17 17 16 15 13 11 11 10 9 9 8 7 7 6 6 5 5 5 5 4 4 3 3 3 2 2
14 17 17 21 18 18 19 20 20 20 20 18 17 18 22 19 17 17 16 16 14 12 10 10 9 8 8 8 7 7 5 5 4 4 4 4 3 3 3 3 2 2 2 1
16 16 19 20 18 18 19 20 20 18 19 18 18 21 18 18 17 16 15 14 12 10 10 9 8 7 7 7 7 5 4 4 4 4 3 3 3 3 2 2 2 1 -0 -1
13 15 16 18 18 18 19 19 18 18 19 18 19 17 15 15 16 15 14 11 11 10 8 6 6 6 7 7 5 4 3 3 3 2 2 2 2 2 2 2 1 0 -1 -2
18 20 19 18 19 19 17 17 18 18 19 17 17 17 15 14 13 12 11 10 8 6 5 5 6 5 6 5 3 3 2 2 2 2 1 1 2 2 2 2 1 1 0 0
16 20 19 18 18 18 18 18 18 18 18 17 17 17 15 13 12 10 9 8 6 4 3 5 4 4 4 3 2 2 2 2 2 1 0 -1 -1 1 1 1 1 1 0 0
16 18 19 19 19 18 18 18 17 17 16 16 15 15 14 12 11 9 5 3 4 3 5 5 3 3 3 2 1 1 2 1 1 1 0 -0 -1 -1 0 1 1 0 0 -0
17 19 18 18 18 17 16 16 16 15 15 13 13 13 12 10 6 5 3 3 2 4 4 4 2 2 1 0 -0 -0 0 1 1 0 1 0 -0 -1 -0 -1 -1 -2 -2 -2
16 16 16 16 15 13 13 12 11 11 11 10 9 7 5 4 2 3 3 2 3 4 2 0 0 -0 -0 -0 -1 -1 -0 0 0 0 0 -0 -0 -0 -0 -1 -2 -2 -2 -2
13 14 15 11 11 10 9 8 7 7 6 5 4 3 2 1 2 2 3 3 1 0 -0 -0 -0 0 0 -0 -1 -0 -1 -0 -1 -0 -0 -0 -1 -0 -1 -1 -1 -1 -2 -3
10 11 11 10 9 9 8 7 5 4 3 2 2 2 2 2 3 2 1 -0 -0 -0 0 0 1 1 1 -0 -1 -0 -1 -1 -1 -2 -2 -2 -2 -2 -1 -1 -2 -2 -2 -2
9 9 9 8 7 4 3 3 3 2 3 4 4 4 4 3 3 2 1 0 -1 1 2 2 0 0 -0 -0 0 0 -0 -1 -1 -1 -2 -3 -2 -2 -2 -2 -2 -2 -2 -2
7 5 6 4 4 4 4 4 5 6 6 5 4 3 3 2 0 1 1 0 0 0 0 0 1 0 -0 -1 -0 0 0 -0 -1 -2 -1 -1 -1 -1 -2 -2 -2 -2 -2 -2
5 4 4 4 5 5 5 5 3 2 2 1 1 0 0 -1 -0 -0 -0 -0 -0 -0 1 1 1 -0 -1 -1 -1 -1 -1 -2 -2 -2 -2 -2 -3 -2 -2 -2 -2 -2 -2 -2
5 5 5 5 5 3 2 2 0 0 -0 -0 -0 -1 -1 -1 -1 -1 -1 -2 -2 -2 1 0 -0 -1 -1 -2 -2 -2 -2 -2 -2 -2 -2 -2 -3 -3 -3 -3 -3 -3 -3 -3
5 4 4 3 1 1 1 -0 0 1 1 -1 -1 -0 -0 -0 -1 -1 -2 -2 -1 -0 0 -1 -1 -2 -2 -2 -2 -1 -2 -3 -3 -3 -3 -2 -2 -3 -3 -3 -3 -3 -3 -3
4 2 1 0 -0 -0 -1 -1 -0 -1 -1 -1 -1 -2 -2 -2 -2 -2 -1 -0 1 0 -1 -2 -2 -2 -1 -1 -1 -2 -3 -4 -4 -3 -3 -3 -3 -3 -3 -3 -3 -3 -3 -3
3 1 -0 -0 0 -1 -2 -2 -2 -2 -2 -3 -3 -3 -3 -3 -3 -2 -2 -2 -2 -1 -2 -2 -2 -2 -2 -2 -3 -3 -4 -3 -3 -4 -3 -3 -3 -3 -4 -4 -4 -4 -4 -4
2 1 -1 -1 -2 -2 -2 -4 -4 -4 -4 -4 -3 -3 -3 -3 -3 -3 -2 -2 -3 -3 -3 -3 -3 -3 -3 -3 -3 -3 -4 -4 -5 -5 -5 -6 -6 -6 -5 -5 -5 -5 -5 -5
0 -1 -2 -3 -3 -3 -2 -3 -4 -3 -4 -4 -3 -4 -4 -3 -3 -3 -3 -4 -4 -4 -4 -4 -3 -4 -4 -4 -4 -5 -6 -6 -7 -8 -8 -9 -8 -8 -8 -8 -8 -8 -7 -7
-3 -3 -3 -3 -2 -2 -4 -4 -4 -4 -4 -5 -5 -5 -6 -6 -6 -5 -6 -6 -5 -5 -5 -4 -4 -5 -7 -7 -8 -9 -9 -9 -10 -11 -10 -10 -10 -10 -10 -10 -10 -10 -11 -10
-2 -2 -3 -4 -5 -5 -6 -6 -6 -6 -6 -6 -7 -7 -7 -7 -7 -8 -7 -7 -7 -8 -9 -10 -10 -10 -11 -11 -11 -12 -11 -11 -12 -12 -13 -12 -12 -12 -12 -12 -12 -12 -12 -12
-5 -5 -4 -5 -6 -7 -8 -8 -8 -8 -8 -9 -9 -9 -9 -9 -9 -10 -10 -10 -11 -11 -11 -12 -13 -14 -14 -14 -14 -14 -14 -14 -15 -15 -15 -15 -15 -15 -15 -15 -14 -14 -14 -13

GFSNGP_925_temp_021.txt.gz
Temp
25 24 24 25 26 25 25 25 24 25 26 27 28 27 27 26 25 25 25 23 22 21 20 18 17 15 14 13 11 12 12 12 12 11 10 9 9 8 7 6 6 6 6 6
21 24 23 23 25 25 26 26 26 26 26 28 27 28 26 25 24 24 24 23 22 20 19 18 17 15 14 12 13 12 12 11 11 10 10 9 8 7 7 7 6 6 5 5
21 21 21 18 21 24 25 26 25 24 26 27 26 24 24 24 24 23 23 22 21 20 19 18 17 15 14 13 13 12 11 11 10 10 9 8 8 7 7 7 6 5 5 4
19 15 16 25 24 24 24 25 26 26 26 26 25 24 24 24 24 23 22 21 21 20 18 18 17 15 13 13 12 11 11 10 9 9 8 8 7 7 7 6 6 5 5 4
17 20 23 24 24 22 22 23 25 24 25 25 24 22 23 23 22 22 22 21 20 19 18 17 15 15 13 12 11 10 9 9 9 8 7 7 7 6 6 5 5 5 5 4
18 17 16 22 22 21 22 21 23 23 23 23 22 20 23 22 22 22 21 20 19 19 18 16 14 13 11 10 9 10 9 8 7 6 6 6 6 5 5 5 5 4 4 3
18 17 20 23 22 21 20 20 21 21 22 22 21 22 20 20 21 21 20 20 19 17 16 14 11 10 9 9 8 8 7 6 6 6 6 5 5 4 4 4 4 3 2 2
17 15 16 22 21 20 21 21 22 21 21 20 20 21 21 19 19 20 19 18 16 14 13 10 8 7 6 6 7 5 5 5 5 5 4 4 4 4 4 4 4 3 2 1
21 21 21 21 21 22 21 20 20 20 20 20 20 20 20 19 18 18 17 15 13 12 8 5 4 3 6 6 5 4 4 4 4 4 4 3 3 2 3 3 3 3 2 0
19 22 22 22 22 21 21 20 20 20 20 20 19 19 19 19 16 15 14 11 9 6 4 2 3 5 5 4 2 3 3 4 3 3 3 2 2 2 1 2 2 2 1 1
20 21 22 21 21 20 19 19 19 19 19 18 17 17 18 16 14 13 8 5 3 2 4 5 4 3 3 2 2 2 2 2 2 2 2 2 2 1 1 1 1 1 1 0
18 19 18 20 19 17 17 16 16 16 16 14 15 15 15 12 8 5 3 3 3 3 3 4 2 2 2 1 0 -0 1 1 1 2 2 2 2 1 1 0 0 -0 0 -0
18 17 17 17 15 14 13 13 13 12 11 10 10 9 7 4 3 3 2 2 3 4 4 3 2 1 1 0 0 -0 -0 1 1 1 2 2 1 1 1 1 -0 -1 -1 -1
14 15 16 14 13 12 11 10 7 6 5 4 4 4 4 4 3 3 3 3 4 3 2 2 1 1 1 1 1 1 1 1 1 2 0 -0 -0 -1 -0 0 -0 -0 -1 -2
13 14 13 13 12 10 8 6 6 6 5 4 4 4 5 5 5 5 5 3 2 2 3 3 3 3 4 3 2 1 1 1 1 -0 -1 -1 -1 -2 -2 -1 -1 -1 -1 -1
12 12 11 9 7 7 7 6 5 5 5 6 7 6 6 6 5 5 5 4 2 3 3 3 2 2 2 2 2 3 2 2 1 -0 -1 -1 -1 -1 -1 -1 -1 -1 -1 -1
9 8 7 6 6 6 6 7 8 7 7 5 4 2 2 2 2 4 3 3 1 0 0 -0 1 1 2 2 2 2 2 1 0 -1 -1 -1 -1 -1 -1 -1 -1 -1 -1 -2
8 7 7 8 7 7 7 5 4 3 2 1 0 0 -0 -1 -1 -0 -0 0 0 0 1 0 0 -0 0 1 1 1 0 -1 -1 -1 -1 -1 -1 -2 -2 -2 -2 -2 -1 -1
7 7 7 6 6 4 3 2 0 1 0 -0 -0 -1 -0 -0 -1 -1 -1 -1 -1 0 3 1 0 -0 -1 -0 -0 -1 -1 -1 -1 -1 -2 -2 -2 -2 -2 -2 -2 -2 -2 -2
7 6 5 3 1 2 1 -0 1 2 2 -1 -1 -1 -1 -1 -2 -2 -2 -2 -1 0 0 -0 -1 -1 -1 -1 -1 -1 -1 -1 -1 -2 -3 -2 -3 -2 -2 -2 -2 -2 -2 -3
5 3 2 0 -1 -1 -1 -1 -1 -1 -1 -3 -3 -3 -3 -3 -3 -3 -2 -1 -1 -1 -2 -2 -2 -2 -2 -1 -1 -2 -1 -2 -2 -3 -3 -3 -3 -2 -3 -3 -3 -3 -3 -3
4 1 0 0 -0 -1 -2 -2 -2 -3 -3 -3 -3 -3 -3 -1 -2 -2 -2 -2 -2 -3 -3 -3 -3 -2 -3 -3 -3 -3 -3 -2 -3 -3 -3 -3 -4 -4 -4 -4 -4 -4 -4 -4
3 1 -0 -1 -1 -1 -2 -3 -3 -3 -3 -3 -3 -3 -3 -3 -2 -2 -2 -3 -4 -5 -5 -4 -5 -5 -4 -4 -3 -3 -3 -3 -3 -4 -5 -5 -6 -6 -6 -6 -6 -6 -6 -6
2 1 -1 -2 -2 -1 -0 -1 -2 -2 -4 -3 -3 -4 -5 -4 -4 -4 -5 -6 -6 -7 -6 -8 -9 -9 -7 -6 -6 -6 -6 -6 -7 -7 -7 -8 -7 -8 -8 -8 -8 -8 -8 -8
-1 -1 -1 -1 0 0 -1 -2 -2 -2 -3 -4 -4 -5 -6 -6 -6 -6 -7 -8 -8 -9 -9 -9 -10 -11 -10 -9 -9 -10 -9 -9 -10 -10 -10 -10 -10 -10 -10 -10 -10 -10 -10 -10
1 1 -1 -2 -3 -3 -3 -4 -4 -4 -5 -5 -6 -6 -7 -7 -8 -8 -9 -9 -10 -10 -10 -10 -11 -12 -12 -12 -12 -12 -12 -12 -13 -13 -13 -12 -12 -12 -12 -12 -12 -12 -12 -12
-3 -2 -1 -2 -4 -5 -6 -6 -6 -6 -6 -8 -8 -7 -7 -8 -9 -9 -10 -10 -11 -11 -11 -12 -12 -13 -13 -13 -13 -13 -14 -14 -14 -15 -15 -14 -14 -14 -14 -15 -14 -14 -14 -14

GFSNGP_925_temp_024.txt.gz
Temp
25 26 26 25 26 26 26 25 22 24 25 27 28 27 28 27 26 26 26 25 25 23 21 20 19 17 16 15 14 13 12 11 12 12 11 11 10 9 8 8 7 6 6 6
21 24 25 24 25 25 26 26 26 26 26 28 28 27 26 26 26 25 25 25 25 24 22 20 19 18 16 15 13 12 11 12 12 11 11 10 9 9 8 7 7 7 6 6
20 21 21 18 21 23 25 26 26 24 26 27 26 26 25 25 25 24 24 23 23 23 22 21 19 18 16 15 13 13 12 12 11 11 9 9 9 8 7 7 7 6 6 5
18 15 17 23 26 25 25 25 26 26 26 26 24 24 24 24 24 23 23 22 22 22 21 20 19 18 16 15 13 13 12 11 9 9 9 8 7 6 7 7 6 6 5 5
16 19 22 23 25 24 23 23 24 24 24 24 24 23 23 24 23 22 21 21 22 21 21 20 19 17 15 14 13 11 9 8 7 8 7 6 6 6 6 6 5 5 5 5
17 17 17 22 23 23 23 20 23 22 22 22 23 18 21 21 21 22 22 22 21 21 20 19 17 15 13 11 9 8 6 6 5 6 5 4 5 5 5 5 5 5 4 4
17 16 18 23 23 22 20 19 21 21 21 21 20 20 20 20 20 20 21 20 20 17 14 11 10 10 7 6 5 4 4 4 4 4 4 4 4 4 4 4 4 4 4 3
17 14 15 23 22 19 20 21 21 21 21 20 20 20 20 20 21 19 19 18 14 10 7 6 5 4 4 4 4 3 4 3 3 3 3 4 4 3 3 3 3 4 3 2
19 18 22 23 22 22 21 20 20 20 20 20 19 20 20 19 19 17 16 10 10 6 4 3 3 3 3 4 4 4 3 1 2 3 4 3 2 2 2 2 2 3 3 2
19 23 23 23 22 22 21 20 20 20 20 19 18 18 18 18 16 15 11 9 6 4 3 3 4 3 4 3 3 2 1 2 3 3 2 2 2 2 2 1 1 1 1 2
20 21 22 22 20 18 18 18 18 17 16 15 16 16 15 12 10 8 5 4 4 4 3 2 2 3 3 2 1 2 2 2 1 1 1 2 2 2 2 1 1 0 0 0
17 19 18 18 16 17 15 15 15 14 13 12 12 11 9 7 5 4 3 3 3 3 3 3 3 3 3 2 1 1 0 1 1 1 1 2 1 2 1 1 1 1 0 -0
18 17 17 16 14 13 12 12 11 10 9 7 6 5 5 4 3 3 3 3 3 3 3 4 3 2 2 2 1 1 0 0 1 1 1 1 1 0 -0 -0 -0 0 0 0
15 16 14 15 13 12 9 8 7 6 6 6 6 5 4 4 4 5 5 5 5 4 4 4 3 3 3 2 2 1 1 1 2 1 1 0 -0 -0 -1 -1 -2 -1 -0 -0
14 15 14 12 10 9 8 8 7 7 6 6 6 6 6 6 6 6 5 5 4 4 4 4 4 4 3 4 3 3 2 2 1 2 1 0 0 -0 -1 -1 -2 -1 -1 -1
14 12 10 9 8 8 8 7 6 6 6 5 4 4 5 5 5 5 5 3 3 2 2 1 2 2 1 2 3 3 3 3 3 2 1 0 -1 -1 -1 -1 -1 -1 -1 -1
9 7 7 7 7 7 8 6 5 5 5 3 2 -0 0 1 3 1 1 1 0 0 1 0 0 0 1 1 1 2 2 2 2 1 -1 -1 -1 -1 -1 -1 -2 -1 -1 -1
9 8 8 8 7 6 5 4 3 2 0 -1 -1 -1 -1 -1 -1 -1 -1 -1 -2 -1 1 0 0 -0 -0 -0 -0 -0 0 1 0 -1 -1 -1 -1 -1 -2 -2 -2 -2 -2 -2
8 7 7 6 5 4 2 1 0 -0 -1 -1 -1 -2 -2 -2 -2 -2 -2 -2 -1 0 -2 -1 -1 -2 -1 -1 -1 -1 -1 -1 -1 -1 -1 -1 -2 -2 -2 -2 -2 -2 -2 -2
6 6 4 2 1 1 -1 -1 2 1 -2 -3 -3 -3 -2 -2 -2 -2 -2 -1 -0 -3 -3 -3 -3 -3 -2 -2 -2 -3 -3 -3 -2 -2 -2 -2 -2 -2 -3 -3 -3 -2 -2 -3
4 2 0 -1 -1 -2 -2 -2 -2 -2 -2 -3 -3 -3 -3 -2 -2 -2 -1 -1 -3 -4 -5 -5 -5 -6 -6 -6 -5 -4 -4 -3 -3 -3 -2 -2 -3 -3 -3 -3 -4 -4 -4 -4
2 0 -1 -1 -1 -2 -2 -2 -2 -3 -3 -3 -3 -4 -3 -3 -3 -3 -3 -4 -5 -6 -7 -6 -8 -8 -8 -7 -6 -6 -5 -4 -4 -4 -3 -3 -4 -5 -5 -5 -5 -5 -6 -6
1 -0 -1 -1 -0 -1 -2 -2 -3 -3 -3 -3 -4 -5 -4 -4 -4 -4 -5 -6 -7 -8 -8 -8 -9 -10 -10 -9 -9 -9 -8 -8 -8 -8 -8 -7 -7 -7 -7 -7 -8 -8 -8 -8
1 1 -0 -1 -1 -0 0 -1 -1 -2 -3 -2 -3 -5 -5 -5 -5 -6 -7 -8 -9 -9 -9 -10 -10 -11 -11 -11 -11 -11 -11 -10 -11 -11 -11 -11 -10 -10 -10 -10 -10 -10 -10 -11
0 -1 -1 -0 1 0 -1 -2 -1 -2 -3 -4 -4 -5 -6 -6 -7 -8 -8 -9 -9 -10 -10 -10 -11 -12 -12 -12 -12 -12 -13 -13 -13 -13 -13 -13 -13 -13 -13 -13 -13 -13 -13 -13
1 1 -1 -2 -2 -2 -3 -3 -4 -4 -5 -5 -6 -6 -7 -7 -8 -9 -9 -10 -10 -11 -11 -11 -12 -12 -13 -13 -13 -14 -14 -14 -15 -15 -15 -15 -15 -15 -15 -15 -15 -15 -15 -15
-2 -1 -1 -2 -4 -5 -6 -5 -6 -6 -6 -8 -8 -8 -7 -8 -9 -10 -10 -11 -11 -12 -12 -13 -13 -13 -14 -14 -14 -15 -15 -16 -16 -16 -16 -17 -17 -17 -17 -17 -16 -16 -16 -15

GFSNGP_925_temp_027.txt.gz
Temp
21 22 23 23 23 23 22 20 18 19 21 21 24 22 21 21 22 24 22 21 19 18 17 17 16 15 15 15 14 13 12 12 12 11 11 10 10 9 9 8 8 7 7 6
20 21 20 21 21 22 22 22 23 23 21 23 22 21 21 21 21 21 21 20 19 18 16 16 15 14 15 15 14 13 12 12 12 11 11 9 9 8 8 8 7 7 7 6
17 17 18 15 19 20 21 22 22 20 20 19 19 20 20 20 19 20 21 19 18 17 16 17 16 16 14 14 13 13 12 12 10 10 9 8 8 7 7 7 6 6 6 6
12 12 14 18 23 23 21 21 20 19 19 19 19 18 18 17 17 17 18 18 18 18 19 18 18 16 15 14 13 12 11 9 9 8 7 6 5 6 6 4 4 5 5 5
12 12 16 19 21 21 21 19 19 18 18 18 19 17 16 17 17 18 19 18 19 19 18 16 16 15 13 11 8 8 7 6 6 5 4 4 5 5 3 4 4 4 5 5
11 12 12 16 21 21 21 14 18 17 17 17 17 11 14 17 17 16 16 13 10 9 9 9 8 9 6 4 4 4 4 4 3 4 3 4 3 3 3 3 4 4 4 4
8 9 12 18 20 21 15 14 18 18 17 17 16 14 16 18 17 13 11 8 6 5 4 4 5 5 3 3 2 3 3 3 3 3 2 2 3 3 3 3 3 3 3 3
10 11 13 19 20 17 15 17 17 18 18 18 17 16 16 15 12 10 7 5 4 4 3 4 5 4 3 2 2 3 2 2 3 2 2 2 3 3 3 2 2 1 2 2
13 12 15 20 18 17 16 16 16 16 15 15 14 14 14 12 8 6 5 4 3 3 4 4 4 5 4 4 4 3 3 2 2 2 2 3 3 2 2 2 1 1 1 1
15 19 19 18 16 15 15 14 14 12 12 13 12 12 10 9 6 5 4 4 4 4 3 4 4 4 3 3 3 2 2 2 2 2 2 2 2 2 2 2 1 1 1 0
16 18 15 14 14 14 13 13 11 11 10 10 9 8 6 5 4 4 4 4 3 3 3 2 3 3 3 3 3 2 1 1 1 1 1 1 1 2 2 2 1 1 1 1
10 15 13 12 12 12 11 10 10 8 7 7 7 6 5 4 4 3 3 3 3 3 3 3 3 3 3 3 2 2 1 1 1 1 1 1 1 1 1 1 0 -0 -0 -0
14 13 12 11 9 9 8 8 7 7 6 5 4 4 3 2 3 3 3 3 4 4 4 3 3 3 3 3 2 2 1 1 1 1 1 1 1 1 -0 -0 -0 -0 -0 -1
13 12 11 11 8 8 7 6 6 6 5 4 4 4 4 4 4 4 4 4 4 4 4 4 3 3 3 2 2 2 2 2 1 1 1 1 1 1 1 -0 -1 -1 -0 -0
11 11 9 8 8 7 7 6 5 4 4 4 4 5 5 4 4 3 3 3 3 3 2 2 2 1 1 1 1 1 2 2 2 2 2 2 1 0 0 -1 -1 -2 -1 -1
9 9 8 7 7 7 5 5 4 3 3 3 2 1 1 2 1 1 -0 -1 -1 -2 -2 -1 -1 -1 -0 -0 -0 -0 0 0 0 1 1 0 0 -1 -1 -2 -2 -2 -2 -2
6 6 6 7 6 6 5 4 4 3 1 -1 -2 -2 -2 -2 -2 -2 -3 -3 -3 -3 -1 -2 -2 -2 -1 -1 -1 -1 -2 -2 -1 -1 -1 -1 -1 -1 -2 -2 -2 -2 -2 -2
8 7 7 6 5 3 2 1 -0 -1 -2 -2 -2 -2 -2 -2 -3 -3 -2 -2 -1 -2 -2 -3 -3 -3 -4 -4 -4 -4 -4 -3 -3 -3 -2 -2 -2 -2 -2 -2 -2 -2 -2 -3
7 6 5 4 3 1 -0 -1 -2 -2 -2 -2 -2 -2 -2 -3 -2 -2 -2 -2 -4 -4 -5 -5 -5 -5 -6 -6 -6 -5 -5 -5 -5 -4 -4 -4 -3 -3 -2 -2 -2 -3 -3 -3
3 3 2 0 -0 -1 -1 -1 -2 -2 -3 -3 -3 -3 -3 -3 -2 -2 -2 -5 -6 -7 -6 -7 -7 -8 -8 -8 -7 -7 -7 -7 -6 -5 -4 -4 -4 -3 -3 -3 -3 -4 -4 -4
1 -1 -1 -2 -2 -2 -2 -1 -2 -3 -3 -3 -4 -3 -3 -3 -3 -3 -5 -6 -7 -8 -8 -8 -9 -10 -10 -10 -10 -9 -10 -9 -9 -9 -8 -8 -7 -7 -6 -6 -6 -6 -6 -6
-0 -1 -2 -2 -3 -3 -2 -2 -3 -3 -3 -4 -4 -4 -5 -4 -5 -5 -7 -8 -8 -9 -9 -10 -10 -11 -11 -11 -11 -12 -11 -11 -12 -12 -12 -11 -10 -10 -9 -9 -9 -9 -9 -10
-0 -1 -1 -2 -2 -3 -3 -3 -3 -3 -4 -4 -5 -5 -5 -5 -6 -8 -8 -9 -9 -9 -10 -10 -11 -11 -12 -12 -13 -13 -13 -13 -14 -14 -14 -13 -13 -13 -12 -12 -13 -13 -13 -13
-1 -1 -1 -1 -2 -2 -2 -3 -3 -3 -3 -5 -5 -6 -6 -7 -7 -8 -8 -9 -10 -10 -11 -11 -12 -12 -13 -13 -13 -14 -14 -15 -15 -15 -15 -15 -15 -15 -15 -15 -15 -15 -15 -15
-1 -1 -1 -1 -2 -3 -3 -3 -4 -4 -5 -6 -6 -6 -7 -8 -8 -9 -9 -10 -10 -11 -12 -12 -13 -13 -14 -14 -14 -15 -15 -16 -16 -16 -17 -17 -17 -17 -17 -17 -17 -16 -16 -16
-1 -2 -3 -3 -4 -4 -5 -5 -6 -6 -6 -7 -7 -7 -8 -9 -9 -10 -10 -11 -11 -12 -13 -13 -13 -14 -14 -15 -15 -16 -16 -17 -17 -17 -18 -18 -19 -19 -19 -19 -18 -18 -17 -17
-3 -3 -4 -5 -6 -6 -6 -7 -7 -7 -8 -8 -8 -8 -9 -10 -10 -11 -12 -12 -13 -13 -13 -14 -14 -15 -15 -16 -16 -17 -17 -18 -18 -18 -19 -19 -20 -20 -20 -20 -19 -19 -18 -18

GFSNGP_925_temp_030.txt.gz
Temp
19 20 21 22 21 22 20 19 17 18 18 20 22 21 19 19 21 19 17 17 16 15 15 15 15 15 13 13 13 13 12 12 12 12 11 11 10 9 8 8 7 7 7 7
20 19 19 21 20 20 20 21 19 20 20 17 18 18 17 18 18 18 18 19 19 16 14 14 14 14 13 13 12 12 12 12 12 11 10 10 8 7 7 7 6 6 7 6
17 15 17 14 17 19 20 21 21 18 19 18 17 17 18 17 16 16 16 16 16 15 14 14 14 14 13 12 12 11 10 11 10 9 8 6 6 6 5 4 5 6 5 5
12 12 13 17 19 20 17 17 17 17 17 16 16 15 14 15 15 15 16 15 14 14 15 15 14 13 12 10 10 10 10 8 7 6 5 4 4 3 3 4 4 4 4 4
12 12 15 19 20 19 18 18 18 16 17 17 16 15 15 16 13 12 10 9 8 7 8 10 11 11 9 7 6 5 4 4 4 4 4 4 4 2 3 3 3 4 4 4
9 12 12 15 18 20 18 13 17 15 16 16 16 10 13 13 10 8 7 6 6 5 5 5 4 5 4 3 3 3 4 4 4 4 4 2 1 2 2 3 3 3 3 3
6 9 11 15 18 19 16 14 16 15 15 16 14 13 13 9 7 6 5 5 4 4 4 4 4 4 3 3 3 4 4 4 4 3 1 1 2 3 3 3 2 2 2 1
10 9 14 16 18 17 14 14 15 15 16 14 12 11 9 8 7 5 4 4 4 4 4 4 5 6 5 5 5 4 3 2 1 2 2 2 2 2 3 2 2 2 1 1
12 12 14 17 17 15 14 14 14 13 13 12 12 10 8 6 5 4 3 4 4 4 4 4 4 4 3 2 2 2 2 2 2 2 2 2 2 2 2 2 2 1 1 1
14 15 14 13 12 13 12 11 10 10 10 10 9 7 6 5 4 4 4 4 4 3 3 3 3 3 3 3 3 3 2 2 2 2 2 2 2 1 1 1 1 1 1 1
13 13 13 12 11 11 10 9 8 8 8 7 6 5 5 4 4 4 3 3 3 2 2 3 3 3 3 3 3 3 2 2 2 1 1 1 1 1 1 1 1 0 -0 -0
11 14 12 11 10 9 9 8 7 6 5 5 5 4 3 2 3 3 2 3 3 3 3 3 3 3 3 3 3 2 2 2 2 1 1 1 1 1 1 1 1 0 0 -0
13 12 10 8 8 8 6 6 5 5 4 3 3 3 3 2 3 3 3 3 3 3 3 2 2 2 1 1 1 1 1 1 1 1 1 1 1 1 -0 1 1 1 1 0
10 9 8 8 6 6 5 5 4 4 3 3 3 3 3 3 3 2 2 2 2 2 1 0 -0 -1 -0 -0 -0 -0 -0 -0 -0 -1 -1 -1 -1 -0 -0 -1 -1 -1 -0 -0
9 9 8 6 6 5 5 5 4 3 2 2 2 2 2 1 -0 -1 -1 0 0 -1 -2 -2 -2 -2 -2 -1 -2 -2 -2 -2 -2 -2 -2 -2 -2 -2 -2 -2 -2 -2 -1 -1
7 7 6 5 5 4 4 3 2 1 1 0 -0 -1 -1 -1 -2 -2 -3 -3 -3 -2 -2 -3 -4 -4 -3 -4 -4 -4 -4 -4 -3 -3 -3 -3 -3 -2 -2 -2 -2 -2 -3 -2
6 5 5 4 4 4 3 2 2 0 -1 -2 -2 -2 -2 -2 -2 -2 -2 -2 -2 -3 -4 -5 -5 -5 -5 -6 -6 -6 -6 -6 -6 -5 -5 -5 -4 -3 -3 -3 -3 -2 -3 -2
6 5 5 5 3 2 1 -0 -2 -2 -2 -2 -2 -2 -2 -2 -3 -3 -3 -3 -4 -5 -6 -7 -7 -7 -7 -7 -8 -8 -8 -8 -8 -7 -7 -7 -6 -5 -5 -4 -4 -3 -3 -3
6 5 4 4 3 1 -1 -2 -2 -2 -2 -2 -2 -3 -3 -3 -3 -4 -4 -5 -7 -7 -8 -8 -8 -8 -9 -9 -9 -10 -10 -10 -9 -9 -9 -9 -8 -8 -7 -7 -6 -4 -4 -4
3 2 1 0 -0 -1 -2 -3 -3 -3 -3 -3 -3 -3 -4 -4 -3 -4 -5 -8 -9 -8 -8 -9 -10 -10 -11 -11 -11 -12 -11 -11 -12 -12 -12 -12 -11 -11 -10 -10 -9 -9 -9 -9
0 -1 -1 -1 -2 -2 -2 -2 -3 -4 -4 -3 -3 -4 -4 -5 -5 -5 -6 -7 -9 -9 -10 -10 -11 -12 -12 -12 -13 -13 -13 -13 -14 -14 -14 -14 -13 -14 -13 -12 -12 -12 -12 -12
-1 -1 -2 -2 -3 -3 -3 -3 -3 -4 -4 -4 -4 -5 -5 -6 -7 -8 -8 -9 -10 -10 -10 -11 -12 -12 -13 -13 -13 -14 -14 -15 -15 -15 -16 -16 -16 -16 -15 -15 -15 -15 -15 -14
-1 -2 -2 -3 -3 -3 -3 -3 -3 -4 -4 -5 -5 -5 -6 -7 -7 -8 -9 -10 -10 -10 -11 -12 -12 -13 -13 -14 -14 -15 -15 -16 -16 -16 -17 -17 -17 -17 -17 -17 -17 -17 -17 -16
-1 -2 -2 -3 -3 -4 -4 -4 -4 -4 -5 -6 -6 -6 -6 -8 -9 -9 -10 -10 -11 -11 -12 -12 -13 -13 -14 -14 -15 -15 -16 -17 -17 -17 -18 -18 -18 -18 -19 -19 -19 -18 -18 -17
-1 -2 -3 -3 -3 -3 -4 -4 -5 -5 -6 -7 -7 -8 -8 -8 -9 -10 -10 -11 -12 -12 -13 -13 -14 -14 -15 -15 -16 -16 -17 -17 -17 -18 -19 -19 -19 -20 -20 -20 -20 -19 -19 -19
-2 -3 -4 -5 -5 -5 -5 -6 -7 -7 -7 -7 -8 -9 -9 -10 -10 -11 -11 -12 -13 -13 -14 -14 -15 -15 -15 -16 -17 -17 -17 -18 -18 -19 -19 -20 -20 -20 -20 -20 -20 -20 -20 -20
-6 -6 -6 -7 -7 -7 -7 -7 -8 -8 -8 -9 -9 -10 -10 -11 -11 -12 -12 -13 -14 -14 -15 -15 -15 -16 -16 -17 -17 -18 -18 -18 -19 -19 -20 -20 -20 -21 -21 -21 -21 -21 -21 -20

GFSNGP_925_temp_033.txt.gz
Temp
19 20 20 20 21 19 18 18 16 18 16 19 20 20 18 17 20 18 16 15 14 13 12 14 13 13 13 12 11 12 12 11 12 12 11 11 10 10 9 8 7 7 6 6
19 18 18 19 19 19 18 19 17 18 18 17 18 17 15 15 16 15 15 16 14 14 13 13 14 13 12 12 12 12 11 10 9 10 9 9 8 7 6 5 5 5 4 5
16 15 16 14 16 17 18 18 19 18 18 17 17 16 15 14 15 15 15 14 13 14 13 14 14 14 12 11 11 9 9 9 9 8 7 6 5 5 5 4 3 3 3 4
11 12 13 17 18 17 17 17 16 16 16 16 14 13 13 13 13 13 11 10 8 7 10 11 12 12 11 10 9 9 6 5 6 5 4 4 5 4 3 2 2 3 3 3
12 12 15 18 17 17 17 18 17 15 14 14 14 14 13 11 9 8 7 6 5 5 5 7 7 7 8 6 5 4 4 4 5 5 4 4 3 3 3 3 3 3 3 3
9 12 13 15 17 18 16 13 16 15 15 14 14 10 12 10 7 6 5 4 4 4 4 4 4 4 4 3 3 4 4 4 4 3 3 3 3 2 1 2 3 2 2 2
6 9 11 14 17 17 16 15 14 14 14 13 13 11 9 6 5 4 4 4 4 3 3 3 4 5 4 4 3 4 4 4 4 4 3 2 2 2 2 2 2 2 2 2
7 9 14 15 16 16 13 14 14 14 13 12 9 7 6 5 4 4 4 4 4 3 3 4 4 4 3 2 3 3 3 3 3 3 2 2 2 2 2 2 2 2 1 1
12 12 14 15 16 15 13 13 13 13 12 10 8 7 5 4 4 3 3 3 3 3 3 4 4 4 3 2 3 3 3 2 2 2 2 2 2 2 2 1 1 1 1 1
13 15 14 13 11 11 12 11 10 11 10 9 6 5 4 4 3 3 3 3 3 3 2 2 3 3 3 3 3 3 2 2 2 2 2 1 1 1 1 1 1 1 0 1
11 12 12 11 10 8 8 7 7 7 7 6 5 5 4 3 3 2 3 3 3 2 2 2 2 2 2 2 2 2 2 2 1 1 1 1 1 1 1 1 1 0 0 0
11 12 12 11 8 8 8 7 6 6 5 5 5 4 3 2 2 2 2 2 2 2 2 1 1 0 0 0 1 0 0 -0 -0 -0 -0 -0 -0 0 1 1 1 1 1 1
14 11 9 8 7 7 6 5 5 4 4 3 3 3 2 1 2 3 2 2 1 0 -0 -1 -1 -1 -1 -1 -1 -1 -2 -2 -2 -2 -2 -2 -2 -2 -2 -2 -2 -1 -1 -0
8 8 7 7 5 5 4 4 4 3 3 2 2 2 1 0 1 0 -0 -0 -1 -2 -3 -3 -3 -3 -3 -2 -2 -3 -3 -3 -4 -4 -3 -3 -3 -3 -3 -3 -3 -2 -2 -2
7 8 7 5 5 4 4 3 3 2 1 1 1 0 0 -1 -2 -3 -2 -2 -3 -3 -4 -3 -4 -5 -5 -4 -4 -5 -5 -6 -6 -6 -6 -5 -5 -5 -5 -4 -3 -3 -3 -2
6 5 5 4 4 3 3 2 1 0 -0 -0 -1 -1 -2 -2 -3 -3 -3 -3 -3 -5 -5 -5 -6 -6 -6 -6 -6 -7 -7 -8 -8 -7 -7 -7 -7 -7 -6 -6 -5 -5 -5 -4
5 4 4 3 3 3 2 2 1 -0 -1 -1 -2 -2 -2 -3 -3 -4 -4 -4 -4 -6 -6 -7 -8 -7 -8 -8 -9 -9 -9 -9 -9 -8 -9 -9 -9 -9 -8 -8 -8 -8 -6 -5
6 5 5 4 2 1 0 -0 -1 -1 -2 -2 -2 -2 -3 -3 -4 -5 -5 -5 -6 -7 -8 -8 -8 -9 -9 -10 -10 -10 -10 -11 -11 -11 -11 -12 -12 -11 -11 -11 -10 -9 -10 -10
5 5 4 3 3 1 -0 -1 -2 -2 -3 -3 -3 -4 -4 -4 -5 -6 -6 -6 -7 -8 -9 -9 -9 -10 -10 -11 -11 -12 -12 -13 -13 -13 -13 -13 -14 -14 -14 -13 -12 -13 -12 -12
3 3 2 0 -1 -1 -2 -3 -3 -3 -3 -3 -3 -4 -5 -5 -5 -6 -6 -9 -9 -9 -9 -10 -10 -11 -12 -12 -13 -13 -13 -14 -14 -15 -15 -15 -15 -16 -15 -15 -15 -15 -15 -14
1 0 -1 -1 -3 -3 -3 -3 -3 -4 -4 -3 -4 -5 -5 -6 -6 -7 -7 -8 -9 -10 -10 -11 -11 -12 -13 -13 -14 -14 -14 -15 -15 -16 -16 -17 -17 -17 -17 -17 -17 -17 -17 -17
-1 -1 -2 -2 -3 -4 -3 -3 -3 -4 -4 -4 -5 -5 -6 -7 -7 -8 -9 -9 -10 -10 -11 -11 -12 -13 -13 -14 -14 -15 -15 -16 -16 -17 -17 -18 -18 -18 -18 -19 -19 -19 -18 -18
-1 -2 -2 -3 -3 -4 -4 -4 -4 -4 -5 -5 -5 -6 -7 -7 -8 -8 -9 -10 -10 -11 -11 -12 -13 -13 -14 -14 -15 -15 -16 -17 -17 -17 -18 -18 -19 -19 -19 -20 -19 -19 -19 -19
-2 -3 -3 -4 -3 -4 -4 -5 -5 -5 -5 -6 -6 -6 -7 -8 -9 -10 -10 -10 -11 -12 -12 -13 -14 -14 -15 -15 -16 -16 -17 -17 -18 -18 -19 -19 -19 -19 -19 -20 -20 -20 -20 -20
-3 -3 -4 -3 -3 -4 -5 -5 -6 -6 -7 -7 -7 -8 -8 -8 -8 -10 -11 -11 -12 -13 -13 -14 -14 -15 -15 -16 -16 -17 -17 -18 -18 -19 -19 -20 -20 -20 -20 -20 -20 -21 -21 -20
-3 -4 -5 -5 -6 -6 -6 -6 -7 -7 -8 -8 -9 -9 -9 -10 -10 -11 -12 -12 -13 -14 -14 -15 -15 -16 -16 -17 -17 -17 -18 -18 -19 -19 -20 -20 -20 -20 -20 -20 -21 -21 -21 -21
-6 -6 -7 -7 -7 -7 -8 -8 -8 -8 -9 -9 -9 -10 -10 -11 -12 -12 -13 -13 -14 -15 -15 -16 -16 -16 -17 -17 -18 -18 -19 -19 -19 -20 -21 -21 -21 -21 -21 -21 -21 -21 -21 -21

GFSNGP_925_temp_036.txt.gz
Temp
18 19 19 19 20 16 17 17 16 17 15 18 17 18 16 16 17 17 16 14 13 13 11 13 13 12 12 11 10 10 10 11 10 10 9 9 9 9 9 8 7 6 5 5
18 17 18 19 18 17 17 17 16 16 16 16 17 16 14 15 15 14 14 14 14 14 13 12 12 13 13 13 12 11 11 10 9 9 8 9 9 8 7 6 5 5 4 4
17 15 17 14 15 16 17 17 17 16 16 16 16 16 15 14 13 12 11 9 9 8 8 10 12 12 11 10 9 9 8 8 8 8 7 6 5 5 4 4 4 3 3 3
11 11 13 17 17 17 16 16 16 15 16 15 14 12 11 10 11 9 8 7 5 5 5 6 8 8 8 8 8 7 6 6 5 5 5 4 4 3 3 2 2 3 2 1
12 11 14 17 16 15 16 16 15 14 13 12 12 12 11 8 6 6 5 4 3 3 4 5 6 6 7 5 5 5 3 3 4 4 4 3 3 2 3 3 2 2 1 2
8 12 13 15 16 16 17 14 14 13 12 12 12 10 11 6 5 4 3 3 3 3 4 4 4 5 5 3 3 3 3 3 3 4 4 4 3 3 3 2 2 2 2 2
6 9 11 13 16 16 16 15 13 13 12 12 13 11 6 4 4 3 3 3 3 3 2 3 3 4 3 3 3 3 4 5 4 4 4 3 2 2 2 2 2 2 2 2
7 9 14 14 16 15 14 13 12 12 12 11 7 6 5 4 3 3 2 2 3 2 3 3 4 4 3 2 3 3 3 2 2 2 2 2 2 2 2 1 1 1 1 1
13 13 14 13 15 14 12 12 12 12 11 9 6 5 4 3 3 2 2 2 3 2 2 3 3 3 2 2 2 2 2 2 2 2 1 1 1 1 1 1 1 0 0 0
13 14 13 13 12 12 13 12 11 11 9 8 6 5 3 3 2 2 2 2 2 2 2 1 1 1 1 1 2 2 1 1 1 1 1 1 0 0 0 0 0 -0 -1 -1
11 12 12 11 10 10 8 7 7 6 7 6 5 4 3 2 2 2 2 2 2 2 1 -0 0 -0 0 1 1 1 0 -0 -1 -1 -1 -1 -1 -1 -1 -1 -1 -2 -2 -2
13 13 13 13 8 7 7 6 6 5 4 4 4 3 3 2 2 2 2 2 1 0 -1 -2 -1 -2 -2 -1 -1 -1 -2 -2 -2 -2 -2 -3 -3 -3 -3 -3 -3 -3 -3 -3
16 11 8 7 6 6 6 5 5 4 4 3 3 3 2 1 1 2 1 0 -1 -2 -2 -2 -3 -3 -3 -2 -2 -3 -4 -4 -5 -5 -5 -5 -6 -5 -5 -5 -5 -4 -4 -3
8 9 7 7 6 5 4 3 3 2 2 2 1 1 1 -0 0 -0 -1 -2 -3 -3 -3 -3 -4 -5 -4 -4 -4 -4 -5 -6 -6 -6 -7 -7 -7 -7 -7 -7 -7 -6 -6 -5
7 7 8 5 4 3 3 3 2 1 1 0 0 -0 -1 -2 -2 -3 -3 -3 -4 -4 -4 -5 -5 -6 -6 -5 -6 -6 -7 -8 -8 -8 -8 -8 -9 -9 -8 -8 -8 -8 -8 -8
5 5 5 4 3 3 2 2 1 0 0 -0 -1 -1 -2 -3 -3 -3 -3 -4 -4 -6 -6 -6 -7 -7 -7 -7 -8 -8 -9 -9 -9 -10 -10 -10 -11 -11 -10 -10 -10 -10 -9 -10
4 3 3 3 2 2 2 1 1 0 -0 -0 -2 -2 -3 -3 -4 -4 -5 -5 -6 -7 -7 -7 -8 -8 -9 -9 -10 -10 -10 -11 -11 -11 -11 -12 -12 -13 -13 -13 -13 -12 -13 -13
6 5 4 4 2 1 1 0 -0 -0 -1 -2 -3 -3 -3 -3 -4 -5 -6 -6 -7 -8 -8 -9 -9 -10 -10 -11 -11 -11 -11 -12 -12 -13 -13 -14 -14 -15 -15 -15 -15 -15 -15 -15
4 3 3 2 2 1 0 -1 -1 -2 -3 -3 -3 -4 -4 -5 -6 -6 -6 -7 -7 -8 -10 -10 -10 -10 -11 -12 -12 -12 -13 -13 -13 -14 -15 -15 -16 -16 -16 -16 -17 -17 -17 -17
3 3 1 0 -0 -1 -2 -2 -3 -3 -3 -3 -4 -5 -6 -6 -6 -7 -7 -8 -9 -9 -10 -10 -10 -11 -12 -13 -13 -14 -14 -15 -15 -16 -16 -17 -17 -17 -17 -18 -18 -18 -18 -18
0 -0 -1 -2 -2 -2 -3 -2 -3 -3 -4 -4 -4 -5 -6 -7 -7 -7 -8 -9 -10 -10 -10 -11 -11 -12 -13 -13 -14 -14 -15 -15 -16 -17 -17 -18 -18 -18 -18 -19 -19 -19 -19 -19
-1 -2 -2 -2 -3 -4 -4 -3 -4 -4 -4 -4 -5 -6 -7 -8 -8 -8 -8 -9 -10 -10 -11 -11 -12 -13 -13 -14 -14 -15 -16 -16 -17 -17 -18 -18 -19 -19 -19 -19 -19 -20 -20 -20
-2 -2 -3 -3 -3 -5 -5 -4 -4 -4 -5 -6 -6 -7 -7 -8 -8 -9 -10 -10 -10 -11 -11 -12 -13 -13 -14 -14 -15 -16 -16 -17 -17 -18 -19 -19 -20 -20 -20 -20 -20 -20 -20 -20
-2 -3 -4 -4 -4 -4 -5 -6 -5 -5 -5 -6 -6 -6 -7 -8 -9 -9 -10 -10 -11 -11 -12 -13 -14 -14 -15 -15 -16 -17 -17 -18 -18 -18 -19 -20 -20 -20 -20 -20 -20 -20 -20 -20
-3 -4 -4 -4 -4 -4 -5 -6 -7 -7 -7 -7 -8 -8 -8 -9 -9 -10 -11 -11 -12 -12 -13 -14 -14 -15 -16 -16 -17 -17 -18 -18 -18 -19 -19 -20 -20 -20 -20 -20 -21 -21 -21 -21
-5 -5 -6 -6 -6 -6 -6 -6 -8 -8 -8 -9 -9 -9 -9 -10 -10 -11 -12 -12 -13 -13 -14 -15 -15 -16 -16 -17 -17 -17 -18 -19 -19 -19 -20 -20 -21 -21 -21 -21 -21 -21 -21 -21
-7 -7 -7 -8 -8 -8 -7 -8 -8 -9 -9 -9 -9 -10 -10 -11 -11 -12 -13 -13 -14 -14 -15 -16 -16 -17 -17 -17 -18 -18 -19 -19 -19 -20 -20 -21 -21 -21 -21 -21 -21 -21 -21 -21